Regional Weather Roundup
Issued by NWS

Home | Current Version | Previous Version | Text Only | Print | Product List | Glossary On
Versions: 1 2 3 4 5 6 7 8 9 10 11 12 13 14 15 16 17 18 19 20 21 22 23 24 25 26 27 28 29 30 31 32 33 34 35 36 37 38 39 40 41 42 43 44 45 46 47 48 49 50
336
ASUS43 KBIS 271402
RWRND

NORTH DAKOTA REGIONAL WEATHER ROUNDUP
NATIONAL WEATHER SERVICE BISMARCK ND
900 AM CDT TUE SEP 27 2016

NOTE: "FAIR" INDICATES FEW OR NO CLOUDS BELOW 12,000 FEET WITH NO
SIGNIFICANT WEATHER AND/OR OBSTRUCTIONS TO VISIBILITY.


NDZ001>003-009>011-017-271500-
NORTHWEST NORTH DAKOTA

CITY           SKY/WX    TMP DP  RH WIND       PRES   REMARKS
WILLISTON      SUNNY     45  41  86 CALM      30.01S
MINOT          SUNNY     46  37  71 SW3       29.99F
MINOT AFB      SUNNY     46  38  76 W2        29.99S
$$

NDZ018>021-031>035-040>046-271500-
SOUTHWEST NORTH DAKOTA

CITY           SKY/WX    TMP DP  RH WIND       PRES   REMARKS
BISMARCK       SUNNY     44  40  85 CALM      30.03S
DICKINSON      SUNNY     49  45  86 CALM      30.01S
GARRISON         N/A     43  38  82 N5        30.01F
HETTINGER ARPT SUNNY     46  43  89 CALM      30.04S
$$

NDZ004>008-012>016-024-026-027-054-271500-
NORTHEAST NORTH DAKOTA

CITY           SKY/WX    TMP DP  RH WIND       PRES   REMARKS
GRAND FORKS    MOSUNNY   47  40  76 NW13      29.91S
GRND FRKS AFB  SUNNY     48  39  70 N13       29.92S
DEVILS LAKE    SUNNY     45  38  76 NW10      29.98R
$$

NDZ022-023-025-028>030-036>039-047>053-271500-
SOUTHEAST NORTH DAKOTA

CITY           SKY/WX    TMP DP  RH WIND       PRES   REMARKS
FARGO          SUNNY     49  39  68 NW14      29.92S
JAMESTOWN      SUNNY     48  40  73 NW6       29.96F
$$





USA.gov is the U.S. government's official web portal to all federal, state and local government web resources and services.